Location: Arroyo Grande
(40.2671°N, 4.2512°W)
Time: 20:05:42
(UTC+00:00)

USA 81 - Pass Details

Date: 03 February 2023
Orbit: 784 x 788 km, 85.0° (Epoch: 19 March)

Event Time Altitude Azimuth Distance (km) Brightness Sun altitude
Rises 20:01:46 0° 192° (SSW) 3,267 7.4 -27.7°
Reaches altitude 10° 20:04:09 10° 196° (SSW) 2,342 6.6 -28.2°
Maximum altitude 20:09:21 61° 277° (W) 896 4.5 -29.2°
Drops below altitude 10° 20:14:34 10° 357° (N) 2,356 6.6 -30.2°
Sets 20:16:59 0° 1° (N) 3,289 7.3 -30.6°
